Overview Statistics Trail Chart Weather Telemetry Raw packets
 

This is the latest recevied weather packets stored in our database for station/object NB9X. If no packets are shown the sender has not sent any weather packets the latest 10 day(s).

<< 85 86 87 88 89 90 91 >>
Time Temp. Humidity Pressure Rain* Wind** Luminosity Snow
1788027872 31.67° C 100% 1015.9 hPa 0 mm - - -
1788027573 31.11° C 100% 1016.2 hPa 0 mm - - -
1788027273 31.67° C 100% 1016 hPa 0 mm - - -
1788026973 31.67° C 100% 1016.3 hPa 0 mm - - -
1788026672 32.78° C 100% 1016.4 hPa 0 mm - - -
1788026373 33.33° C 100% 1016.5 hPa 0 mm - - -
1788026073 32.78° C 100% 1016.5 hPa 0 mm - - -
1788025773 35° C 100% 1016.4 hPa 0 mm - - -
1788025473 36.67° C 100% 1016.3 hPa 0 mm - - -
1788025173 36.11° C 100% 1016.3 hPa 0 mm - - -
1788024873 35.56° C 100% 1016.3 hPa 0 mm - - -
1788024573 34.44° C 100% 1016.4 hPa 0 mm - - -
1788024273 33.89° C 100% 1016.5 hPa 0 mm - - -
1788023973 35.56° C 100% 1016.6 hPa 0 mm - - -
1788023673 36.11° C 100% 1016.6 hPa 0 mm - - -
1788023373 34.44° C 100% 1016.6 hPa 0 mm - - -
1788023073 35.56° C 100% 1016.6 hPa 0 mm - - -
1788022773 34.44° C 100% 1016.5 hPa 0 mm - - -
1788022473 35.56° C 100% 1016.7 hPa 0 mm - - -
1788022173 35.56° C 100% 1016.9 hPa 0 mm - - -
1788021873 34.44° C 100% 1017 hPa 0 mm - - -
1788021573 34.44° C 100% 1017 hPa 0 mm - - -
1788021273 35° C 100% 1017 hPa 0 mm - - -
1788020973 34.44° C 100% 1017 hPa 0 mm - - -
1788020673 34.44° C 100% 1017 hPa 0 mm - - -

* Rain latest hour (hover to see other rain measurements)
** Current wind speed in m/s (hover to see current wind gust speed)